DLH5KV ENTC-EDDM

Flight info

Callsign DLH5KV
Flight time N/A
Altitude 38000
Route AMIMO4A AMIMO DCT OSS/N0452F370 DCT GEVRU/N0453F390 DCT OJ DCT BIKRU DCT RENKI DCT POGAB DCT PIKIB Z36 MAREM DCT VESUB T106 TUSTO T108 LANDU LANDU2B
Aircraft A20N/M-V/N

Departure

Time N/A
Airport Tromsø Airport (ENTC)

Arrival

Time 2026-05-05 18:16
Airport Munich Airport (EDDM)
Time Latitude Longitude Altitude Speed Heading
2026-05-05 17:52 50.03023 13.29059 38709 ft 412 kts 200°
2026-05-05 17:52 50.01868 13.28498 38707 ft 412 kts 200°
2026-05-05 17:53 49.97403 13.26330 38708 ft 412 kts 200°
2026-05-05 17:53 49.91278 13.23364 38719 ft 412 kts 200°
2026-05-05 17:54 49.85807 13.20721 38741 ft 412 kts 200°
2026-05-05 17:54 49.80331 13.18081 38719 ft 411 kts 200°
2026-05-05 17:54 49.77609 13.16772 38488 ft 410 kts 200°
2026-05-05 17:55 49.74882 13.15461 37907 ft 410 kts 199°
2026-05-05 17:55 49.72147 13.14147 37085 ft 413 kts 199°
2026-05-05 17:55 49.69404 13.12830 36285 ft 414 kts 199°
2026-05-05 17:55 49.66673 13.11521 35486 ft 416 kts 198°
2026-05-05 17:56 49.63893 13.10189 34735 ft 418 kts 198°
2026-05-05 17:56 49.61107 13.08856 34001 ft 422 kts 198°
2026-05-05 17:56 49.58299 13.07515 33235 ft 425 kts 198°
2026-05-05 17:56 49.55464 13.06164 32424 ft 427 kts 198°
2026-05-05 17:57 49.52629 13.04815 31640 ft 427 kts 198°
2026-05-05 17:57 49.49792 13.03467 30883 ft 427 kts 198°
2026-05-05 17:57 49.46948 13.02117 30229 ft 425 kts 198°
2026-05-05 17:57 49.44128 13.00778 29601 ft 423 kts 197°
2026-05-05 17:58 49.41355 12.99297 28900 ft 419 kts 202°
2026-05-05 17:58 49.39605 12.98084 28448 ft 417 kts 205°
2026-05-05 17:58 49.36127 12.95524 27554 ft 412 kts 205°
2026-05-05 17:58 49.34414 12.94266 27117 ft 410 kts 205°
2026-05-05 17:59 49.31033 12.91794 26385 ft 403 kts 205°
2026-05-05 17:59 49.28511 12.89957 25770 ft 400 kts 205°
2026-05-05 17:59 49.26008 12.88137 25150 ft 397 kts 205°
2026-05-05 17:59 49.23517 12.86329 24656 ft 392 kts 204°
2026-05-05 18:00 49.21895 12.85152 24350 ft 387 kts 204°
2026-05-05 18:00 49.19461 12.83388 23751 ft 386 kts 204°
2026-05-05 18:00 49.17050 12.81640 23156 ft 383 kts 204°
2026-05-05 18:00 49.14634 12.79891 22504 ft 380 kts 204°
2026-05-05 18:01 49.12259 12.78173 21881 ft 377 kts 204°
2026-05-05 18:01 49.09890 12.76462 21282 ft 374 kts 204°
2026-05-05 18:01 49.07543 12.74768 20687 ft 372 kts 205°
2026-05-05 18:01 49.05216 12.73091 20113 ft 369 kts 205°
2026-05-05 18:02 49.02905 12.71429 19520 ft 367 kts 205°
2026-05-05 18:02 49.00591 12.69768 18889 ft 367 kts 205°
2026-05-05 18:02 48.98270 12.68104 18178 ft 369 kts 205°
2026-05-05 18:02 48.95946 12.66439 17365 ft 371 kts 205°
2026-05-05 18:03 48.93631 12.64782 16564 ft 372 kts 205°
2026-05-05 18:03 48.91283 12.63103 15783 ft 373 kts 205°
2026-05-05 18:03 48.88939 12.61429 15030 ft 373 kts 205°
2026-05-05 18:03 48.86592 12.59759 14282 ft 372 kts 205°
2026-05-05 18:04 48.84246 12.58092 13530 ft 371 kts 205°
2026-05-05 18:04 48.81918 12.56441 12833 ft 367 kts 206°
2026-05-05 18:04 48.79650 12.54827 12631 ft 351 kts 206°
2026-05-05 18:04 48.77493 12.53277 12475 ft 335 kts 206°
2026-05-05 18:05 48.75412 12.51787 12112 ft 327 kts 206°
2026-05-05 18:05 48.73365 12.50326 11600 ft 324 kts 206°
2026-05-05 18:05 48.71332 12.48880 11127 ft 320 kts 206°
2026-05-05 18:05 48.69358 12.47481 10864 ft 316 kts 206°
2026-05-05 18:06 48.67339 12.46051 10795 ft 321 kts 206°
2026-05-05 18:06 48.65981 12.45089 10798 ft 319 kts 206°
2026-05-05 18:06 48.63312 12.43197 10799 ft 320 kts 206°
2026-05-05 18:06 48.61291 12.41753 10799 ft 324 kts 206°
2026-05-05 18:07 48.59252 12.40294 10774 ft 322 kts 206°
2026-05-05 18:07 48.57229 12.38846 10508 ft 320 kts 206°
2026-05-05 18:07 48.55230 12.37422 10162 ft 314 kts 206°
2026-05-05 18:07 48.53291 12.36045 10033 ft 300 kts 206°
2026-05-05 18:08 48.51457 12.34744 9870 ft 281 kts 206°
2026-05-05 18:08 48.49732 12.33525 9558 ft 270 kts 206°
2026-05-05 18:08 48.48033 12.32332 9140 ft 269 kts 206°
2026-05-05 18:08 48.46336 12.31137 8697 ft 269 kts 206°
2026-05-05 18:09 48.44670 12.29960 8293 ft 268 kts 206°
2026-05-05 18:09 48.42983 12.28773 7905 ft 265 kts 206°
2026-05-05 18:09 48.41452 12.27263 7415 ft 266 kts 227°
2026-05-05 18:09 48.40339 12.25055 7054 ft 263 kts 234°
2026-05-05 18:10 48.39300 12.22875 6952 ft 251 kts 234°
2026-05-05 18:10 48.38300 12.20789 6843 ft 239 kts 234°
2026-05-05 18:10 48.37499 12.18668 6593 ft 234 kts 252°
2026-05-05 18:10 48.37192 12.16258 6223 ft 235 kts 263°
2026-05-05 18:11 48.37047 12.13822 5868 ft 231 kts 263°
2026-05-05 18:11 48.36865 12.11467 5535 ft 227 kts 263°
2026-05-05 18:11 48.36686 12.09123 5222 ft 224 kts 264°
2026-05-05 18:11 48.36508 12.06814 4924 ft 221 kts 264°
2026-05-05 18:12 48.36333 12.04541 4623 ft 216 kts 265°
2026-05-05 18:12 48.36164 12.02344 4328 ft 206 kts 265°
2026-05-05 18:12 48.36001 12.00233 4080 ft 200 kts 265°
2026-05-05 18:12 48.35842 11.98168 3846 ft 194 kts 265°
2026-05-05 18:13 48.35691 11.96214 3561 ft 181 kts 266°
2026-05-05 18:13 48.35554 11.94436 3330 ft 162 kts 266°
2026-05-05 18:13 48.35430 11.92823 3116 ft 148 kts 266°
2026-05-05 18:13 48.35317 11.91369 2941 ft 133 kts 267°
2026-05-05 18:14 48.35216 11.90035 2768 ft 130 kts 268°
2026-05-05 18:14 48.35113 11.88682 2587 ft 130 kts 266°
2026-05-05 18:14 48.35008 11.87317 2415 ft 131 kts 266°
2026-05-05 18:14 48.34902 11.85951 2233 ft 136 kts 264°
2026-05-05 18:15 48.34793 11.84523 2050 ft 137 kts 264°
2026-05-05 18:15 48.34682 11.83109 1856 ft 136 kts 264°
2026-05-05 18:15 48.34568 11.81703 1672 ft 134 kts 264°
2026-05-05 18:15 48.34455 11.80314 1516 ft 134 kts 265°
2026-05-05 18:16 48.34357 11.78989 1462 ft 109 kts 263°
2026-05-05 18:16 48.34305 11.78202 1470 ft 25 kts 272°
2026-05-05 18:16 48.34310 11.78132 1469 ft 15 kts 276°
2026-05-05 18:16 48.34335 11.77935 1465 ft 24 kts 285°
2026-05-05 18:17 48.34370 11.77821 1468 ft 1 kts 292°
2026-05-05 18:17 48.34375 11.77803 1468 ft 2 kts 293°
2026-05-05 18:17 48.34375 11.77801 1468 ft 1 kts 293°
2026-05-05 18:17 48.34382 11.77776 1464 ft 5 kts 293°
2026-05-05 18:18 48.34405 11.77696 1459 ft 11 kts 293°
2026-05-05 18:18 48.34439 11.77576 1459 ft 14 kts 293°
2026-05-05 18:18 48.34490 11.77447 1466 ft 15 kts 327°
2026-05-05 18:18 48.34570 11.77435 1463 ft 11 kts 350°
2026-05-05 18:19 48.34627 11.77484 1462 ft 12 kts 81°
2026-05-05 18:19 48.34639 11.77616 1463 ft 14 kts 80°
2026-05-05 18:19 48.34654 11.77777 1461 ft 17 kts 83°
2026-05-05 18:19 48.34671 11.77963 1466 ft 19 kts 82°
2026-05-05 18:20 48.34687 11.78175 1462 ft 21 kts 85°
2026-05-05 18:20 48.34702 11.78408 1464 ft 23 kts 85°
2026-05-05 18:20 48.34720 11.78656 1462 ft 25 kts 83°
2026-05-05 18:20 48.34741 11.78926 1467 ft 27 kts 83°
2026-05-05 18:21 48.34759 11.79166 1467 ft 26 kts 83°
2026-05-05 18:21 48.34769 11.79281 1463 ft 10 kts 83°
2026-05-05 18:21 48.34780 11.79408 1464 ft 14 kts 83°
2026-05-05 18:21 48.34800 11.79546 1462 ft 12 kts 50°
2026-05-05 18:22 48.34808 11.79556 1465 ft 0 kts 34°
2026-05-05 18:22 48.34810 11.79558 1465 ft 2 kts 32°
2026-05-05 18:22 48.34852 11.79558 1462 ft 9 kts 352°
2026-05-05 18:22 48.34928 11.79543 1462 ft 13 kts 352°
2026-05-05 18:23 48.34974 11.79536 1457 ft 7 kts 356°
2026-05-05 18:23 48.35031 11.79528 1459 ft 10 kts 353°
2026-05-05 18:23 48.35101 11.79547 1462 ft 11 kts 39°
2026-05-05 18:23 48.35182 11.79569 1465 ft 13 kts 350°
2026-05-05 18:24 48.35282 11.79552 1467 ft 16 kts 354°
2026-05-05 18:24 48.35397 11.79532 1467 ft 18 kts 353°
2026-05-05 18:24 48.35522 11.79511 1458 ft 13 kts 353°
2026-05-05 18:24 48.35604 11.79505 1460 ft 13 kts 15°
2026-05-05 18:25 48.35645 11.79596 1465 ft 9 kts 75°
2026-05-05 18:25 48.35653 11.79659 1464 ft 8 kts 84°
2026-05-05 18:25 48.35657 11.79723 1464 ft 0 kts 84°